{"data":{"norad_id":68345,"intl_designator":"2026-059AA","name":"STARLINK-37214","alt_names":[],"object_type":"PAYLOAD","status":"ACTIVE","operator":null,"country":"US","launch_date":"2026-03-22","launch_site_code":"AFETR","launch_vehicle":null,"mission":null,"orbit_class":"UNKNOWN","rcs_meters":null,"size_class":null,"mass_kg":null,"dimensions":null,"purposes":["comms"],"wikipedia_slug":null,"has_3d_model":false,"image_url":null,"decayed_at":null,"tle_current":{"epoch":"2026-05-25T04:00:03.998880Z","epoch_age_seconds":70947,"freshness":"FRESH","line1":"1 68345U 26059AA  26145.16671295 -.01894256  00000+0 -50937-1 0  9994","line2":"2 68345  53.1589 348.5840 0001032  68.3304  53.9474 15.40720072  5927","mean_motion":15.40720072,"eccentricity":0.0001032,"inclination_deg":53.1589,"raan_deg":348.584,"arg_perigee_deg":68.3304,"mean_anomaly_deg":53.9474,"bstar":-0.050937,"rev_number":592,"period_min":93.462792246923,"perigee_km":443.27885322673,"apogee_km":444.68693877326,"semimajor_km":6822.119896,"source":"CELESTRAK","updated_at":"2026-05-25T13:38:21.926713Z"}}}